Hondo, TX

1:42 AM CDT on October 22, 2019 (GMT -0500)
Hondo Municipal

Weather History for KHDO - September, 2019

Change the Weather History Date:

Sunday, September 22, 2019

  Actual Average Record
Temperature  
Mean Temperature 86 °F -  
Max Temperature 96 °F 86 °F 100 °F (2000)
Min Temperature 77 °F 62 °F 55 °F (2013)
Cooling Degree Days 22    
Growing Degree Days 36 (Base 50)    
Moisture  
Dew Point 69 °F    
Average Humidity 62    
Maximum Humidity 84    
Minimum Humidity 32    
Precipitation  
Precipitation 0.06 in - - ()
Sea Level Pressure  
Sea Level Pressure 29.96 in    
Wind  
Wind Speed 11 mph (SSE)    
Max Wind Speed 15 mph    
Max Gust Speed 21 mph    
Visibility 10 miles    
Events Rain    
Averages and records for this station are not official NWS values.
T = Trace of Precipitation, MM = Missing Value Source: NWS Daily Summary

Daily Weather History Graph

Daily Weather History Graph

Search for Another Location

Airport or City:

Astronomy

Sep. 22, 2019 Rise Set
Actual Time 7:25 AM CDT 7:33 PM CDT
Civil Twilight 7:01 AM CDT 7:57 PM CDT
Nautical Twilight 6:33 AM CDT 8:24 PM CDT
Astronomical Twilight 6:05 AM CDT 8:52 PM CDT
Moon 12:43 AM CDT 3:02 PM CDT
Length of Visible Light 12h 55m
Length of Day
12h 08m
Last Quarter, 44% of the Moon is Illuminated
Sep 22
Last Quarter
Sep 28
New
Oct 5
First Quarter
Oct 13
Full
Oct 21
Last Quarter

Hourly Weather History & Observations

Time (CDT) Temp. Heat Index Dew Point Humidity Pressure Visibility Wind Dir Wind Speed Gust Speed Precip Events Conditions
12:36 AM 81.0 °F 84.9 °F 71.1 °F 72% 30.01 in 10.0 mi SE 15.0 mph - N/A   Mostly Cloudy
12:51 AM 79.0 °F - 71.1 °F 77% 29.96 in 10.0 mi SE 12.7 mph - N/A   Overcast
1:51 AM 78.1 °F - 71.1 °F 79% 29.97 in 10.0 mi SSE 11.5 mph - N/A   Overcast
2:51 AM 78.1 °F - 71.1 °F 79% 29.97 in 10.0 mi SSE 10.4 mph - N/A   Overcast
3:51 AM 77.0 °F - 72.0 °F 84% 29.96 in 10.0 mi SSE 10.4 mph - N/A   Overcast
4:51 AM 77.0 °F - 72.0 °F 84% 29.96 in 10.0 mi SE 9.2 mph - N/A   Overcast
5:51 AM 77.0 °F - 72.0 °F 84% 29.97 in 10.0 mi ESE 6.9 mph - N/A   Mostly Cloudy
6:51 AM 77.0 °F - 72.0 °F 84% 29.99 in 10.0 mi SE 5.8 mph - N/A   Overcast
7:51 AM 77.0 °F - 72.0 °F 84% 29.99 in 10.0 mi SE 9.2 mph - N/A   Overcast
8:51 AM 79.0 °F - 73.0 °F 82% 30.01 in 9.0 mi SSE 8.1 mph - 0.00 in Rain Light Rain
9:51 AM 80.1 °F 84.5 °F 73.9 °F 81% 30.01 in 10.0 mi SSE 11.5 mph - 0.06 in   Overcast
10:25 AM 82.0 °F 86.7 °F 72.0 °F 71% 30.05 in 10.0 mi South 11.5 mph - N/A   Scattered Clouds
10:51 AM 84.9 °F 89.4 °F 70.0 °F 61% 30.01 in 10.0 mi SSE 11.5 mph - N/A   Scattered Clouds
11:10 AM 84.0 °F 87.8 °F 69.1 °F 61% 30.05 in 10.0 mi SSW 9.2 mph - N/A   Mostly Cloudy
11:19 AM 84.9 °F 88.8 °F 69.1 °F 59% 30.05 in 10.0 mi South 12.7 mph 17.3 mph N/A   Mostly Cloudy
11:51 AM 88.0 °F 92.1 °F 69.1 °F 53% 29.99 in 10.0 mi South 12.7 mph 20.7 mph N/A   Partly Cloudy
12:51 PM 91.0 °F 94.3 °F 66.9 °F 45% 29.98 in 10.0 mi South 13.8 mph 18.4 mph N/A   Mostly Cloudy
1:51 PM 93.0 °F 95.9 °F 66.0 °F 41% 29.95 in 10.0 mi South 9.2 mph - N/A   Scattered Clouds
2:51 PM 91.9 °F 94.1 °F 64.9 °F 41% 29.92 in 10.0 mi SE 9.2 mph 17.3 mph N/A   Mostly Cloudy
3:51 PM 93.0 °F 94.6 °F 64.0 °F 38% 29.90 in 10.0 mi SE 10.4 mph - N/A   Mostly Cloudy
4:51 PM 96.1 °F 96.9 °F 62.1 °F 32% 29.88 in 10.0 mi South 10.4 mph - N/A   Partly Cloudy
5:51 PM 96.1 °F 97.3 °F 63.0 °F 33% 29.88 in 10.0 mi SSE 13.8 mph - N/A   Mostly Cloudy
6:51 PM 93.0 °F 93.8 °F 62.1 °F 36% 29.87 in 10.0 mi South 6.9 mph - N/A   Clear
7:51 PM 89.1 °F 90.0 °F 63.0 °F 42% 29.88 in 10.0 mi ESE 8.1 mph - N/A   Clear
8:51 PM 87.1 °F 88.3 °F 64.0 °F 46% 29.90 in 10.0 mi ESE 6.9 mph - N/A   Clear
9:51 PM 86.0 °F 88.2 °F 66.0 °F 51% 29.93 in 10.0 mi SE 10.4 mph - N/A   Clear
10:51 PM 84.0 °F 88.4 °F 70.0 °F 63% 29.95 in 10.0 mi SSE 12.7 mph - N/A   Clear
11:51 PM 82.0 °F 85.9 °F 70.0 °F 67% 29.97 in 10.0 mi SE 12.7 mph - N/A   Partly Cloudy